Regional Weather Roundup
Issued by NWS

Home | Current Version | Previous Version | Text Only | Print | Product List | Glossary On
Versions: 1 2 3 4 5 6 7 8 9 10 11 12 13 14 15 16 17 18 19 20 21 22 23 24 25 26 27 28 29 30 31 32 33 34 35 36 37 38 39 40 41 42 43 44 45 46 47 48 49 50
000
ASUS46 KSEW 032010
RWRWA

WASHINGTON REGIONAL WEATHER ROUNDUP
NATIONAL WEATHER SERVICE SEATTLE WA
100 PM PDT WED JUN 03 2015

NOTE:"FAIR" INDICATES FEW OR NO CLOUDS BELOW 12,000 FEET WITH NO
SIGNIFICANT WEATHER AND/OR OBSTRUCTIONS TO VISIBILITY.

WAZ505-507>509-032100-
SEATTLE, TACOMA, EVERETT, AND VICINITY

CITY           SKY/WX    TMP DP  RH WIND       PRES   REMARKS
EVERETT        CLOUDY    59  48  67 N6        30.08F
BOEING FIELD   CLOUDY    64  49  57 VRB6      30.07F
RENTON         CLOUDY    62  50  64 NW5       30.07S
SEATAC AIRPORT CLOUDY    62  49  62 W7        30.08S
JBLM-MCCHORD   CLOUDY    63  52  67 VRB3      30.06F
PUYALLUP       CLOUDY    63  52  67 CALM      30.07S
BREMERTON      CLOUDY    57  54  88 NE5       30.10F
JBLM-FT LEWIS  CLOUDY    62  52  69 VRB2      30.06F
TACOMA NARROWS CLOUDY    63  48  58 VRB5      30.07F
$$

WAZ001-503-506-510-514-515-032100-
NORTH INTERIOR

CITY           SKY/WX    TMP DP  RH WIND       PRES   REMARKS
BELLINGHAM     CLOUDY    60  51  72 S8        30.06S
FRIDAY HARBOR  CLOUDY    60  50  69 VRB3      30.07S
EASTSOUND      PTSUNNY   59  50  72 CALM      30.04F
PORT ANGELES   CLOUDY    57  51  80 NW8       30.08S
PORT TOWNSEND  CLOUDY    55  54  94 CALM      30.08S FOG
NAS WHIDBEY    CLOUDY    60  58  92 SW12      30.12S
ARLINGTON        N/A     61  48  63 NW5       30.08F
BURLINGTON     CLOUDY    61  52  72 S8G15     30.07F
$$

WAZ020-022-039-040-504-511-512-032100-
SOUTHWEST INTERIOR

CITY           SKY/WX    TMP DP  RH WIND       PRES   REMARKS
SHELTON        CLOUDY    62  51  67 W3        30.05S
OLYMPIA        CLOUDY    62  48  60 W5        30.07S
CHEHALIS       CLOUDY    63  52  67 VRB6      30.07F
KELSO          CLOUDY    63  50  63 E3        30.11S
VANCOUVER      CLOUDY    64  50  60 VRB5      30.07F
SCAPPOOSE, OR  CLOUDY    59  53  80 CALM      30.07S
PORTLAND, OR   CLOUDY    63  50  62 VRB3      30.07F
$$

WAZ021-516-517-032100-
WASHINGTON COAST

CITY           SKY/WX    TMP DP  RH WIND       PRES   REMARKS
FORKS          CLOUDY    60  52  74 W9        30.09S
HOQUIAM        CLOUDY    59  51  75 SW13      30.09S HAZE
ASTORIA, OR    CLOUDY    61  51  70 W12       30.09S
$$

WAZ019-023-024-040-518-519-032100-
CASCADE MOUNTAINS AND COLUMBIA GORGE

CITY           SKY/WX    TMP DP  RH WIND       PRES   REMARKS
TROUTDALE, OR  CLOUDY    62  53  72 CALM      30.06F
THE DALLES, OR CLOUDY    71  44  37 NW18G24   29.98F
$$

WAZ026-027-041>044-520-521-032100-
EAST SLOPES

CITY           SKY/WX    TMP DP  RH WIND       PRES   REMARKS
OMAK           CLOUDY    65  49  56 CALM      29.95S
WENATCHEE      PTSUNNY   74  39  28 SW8       29.92F
ELLENSBURG     PTSUNNY   72  44  36 NW16      29.96F
YAKIMA         PTSUNNY   73  42  32 SE7       29.96F
$$

WAZ028-034-035-032100-
COLUMBIA BASIN

CITY           SKY/WX    TMP DP  RH WIND       PRES   REMARKS
EPHRATA        CLOUDY    70  42  36 VRB3      29.93F
MOSES LAKE     PTSUNNY   70  44  39 VRB7G17   29.94F
PASCO          MOSUNNY   72  43  35 VRB5      29.95F
HERMISTON, OR  MOSUNNY   74  42  31 W13G20    29.95F
$$

WAZ036>038-032100-
NORTHEAST WASHINGTON

CITY           SKY/WX    TMP DP  RH WIND       PRES   REMARKS
SPOKANE GEIGER PTSUNNY   62  43  49 S10       29.98F
SPOKANE FELTS  PTSUNNY   63  45  51 SW6       29.99S
FAIRCHILD AFB  CLOUDY    64  44  47 S10       29.98F
COEURDALENE,ID CLOUDY    61  45  55 S6        29.98F
DEER PARK      CLOUDY    61  45  55 CALM      29.99F
$$

WAZ029>033-032100-
SOUTHEAST WASHINGTON

CITY           SKY/WX    TMP DP  RH WIND       PRES   REMARKS
PULLMAN        CLOUDY    60  45  57 W5        30.02S
LEWISTON, ID   CLOUDY    67  48  50 VRB7      29.97F
WALLA WALLA    MOSUNNY   69  43  38 SW9G17    29.98F
PENDLETON, OR  PTSUNNY   69  43  38 W13       29.97F
$$


USA.gov is the U.S. government's official web portal to all federal, state and local government web resources and services.